Airfield :
LOGIN :

Register | Disclaimer

   EN    FR    IT 

 










Legend :    VFR   Marginal VFR   IFR   Intensive IFR   Very Intensive IFR
Visi :
Ceiling :
>= 8 km
>= 3000ft
5 to 8 km
1000 to 3000 ft
1500m to 5 km
500 to 1000 ft
800 to 1500m
200 to 500 ft
< 800m
< 200 ft
Symbols :   Thunderstorms  Fog  Heavy snow  Heavy precipitations  Wind > 20 kt
SIGMETs :     Misc.  Thunderstorms  Icing  Turbulence  Mountain Waves  Volcanic Ashes






- Airport Elevation : 157 ft


LESB - Son Bonet

CURRENT METAR :
  • 281400Z AUTO 21012KT CAVOK 27/19 Q1021

EXPIRED METARs :
  • 281330Z AUTO 21013KT 180V240 CAVOK 27/18 Q1021
  • 281300Z AUTO 22013KT CAVOK 27/17 Q1021
  • 281230Z AUTO 22012KT CAVOK 27/17 Q1021
  • 281200Z AUTO 23012KT CAVOK 28/16 Q1022
  • 281130Z AUTO 22010KT 9999 FEW049/// 28/16 Q1022

TAF N/A



MET'MAP, your aeronautical weather chart ! - Copyright ORBIFLY December 2007 - Disclaimer

ORBIFLY MET'MAP TEAM :

Programming & Development : Alexandra Zaïnal
Concept & original design : Baudouin d'Aumeries
Assistance for programming : Marc-Olivier Méhu
Technical & hardware support : Manuel Goepfert

Contact : metmap@orbifly.com




SOURCES & CREDITS :

   NOAA